Theta_e
309 311 310 308 308 306 306 305 308 308 310 308 312 314 313 313 311 315 315 314 314 312 308 305 303 303 305 309 311 311 311 311 310 310 311 311 310 310 308 308 307 306 304 302
311 310 310 313 311 307 305 305 305 306 306 305 307 310 311 312 311 312 315 314 313 312 309 305 303 304 304 305 306 308 306 306 306 308 309 309 308 307 306 302 300 299 298 298
310 310 309 311 309 310 308 304 306 307 307 304 311 313 313 312 311 312 311 311 308 310 307 305 304 303 302 302 302 302 301 300 300 300 300 300 300 299 299 298 298 298 297 297
308 310 314 310 308 308 310 309 304 305 305 306 307 311 312 311 312 311 309 308 306 304 305 307 304 302 301 300 300 300 299 299 298 298 298 298 298 298 297 297 296 296 295 296
310 309 309 311 309 309 308 311 307 308 305 305 311 311 312 310 310 311 309 307 306 307 306 305 303 301 300 299 299 299 298 298 298 298 297 297 296 296 295 295 295 295 294 295
306 312 314 311 310 307 308 312 308 308 304 310 311 310 308 310 310 309 308 307 306 306 305 304 302 301 300 299 299 298 298 298 297 297 296 296 296 296 295 295 294 294 293 293
309 310 310 308 309 307 312 313 306 306 306 311 312 308 307 310 310 309 308 306 306 305 304 304 302 300 299 299 299 299 298 298 297 296 296 296 296 296 295 294 293 293 292 292
308 311 314 307 307 310 310 307 306 305 307 311 308 306 307 310 310 307 305 303 304 302 302 303 302 300 299 299 300 299 298 297 297 297 296 296 296 295 294 293 292 291 291 291
309 310 309 308 309 307 306 307 306 305 306 308 307 307 307 308 308 307 305 304 304 303 301 302 302 301 299 300 300 299 298 297 297 296 296 296 296 295 293 292 291 291 291 291
308 308 306 307 307 306 305 308 306 306 306 307 308 305 307 307 307 307 305 304 303 302 300 299 300 301 302 301 300 299 298 297 296 296 296 295 295 294 293 291 291 291 290 290
305 305 308 307 306 307 305 306 305 305 306 307 306 306 305 306 306 307 306 305 303 302 301 300 301 301 301 301 300 299 298 297 296 296 296 295 294 293 292 291 291 291 290 290
308 306 308 308 309 305 306 305 305 305 306 306 306 306 305 304 306 306 306 304 303 303 302 301 301 301 301 301 301 300 298 297 297 296 296 295 293 291 291 291 290 290 290 289
307 306 307 309 305 305 307 306 305 304 305 305 305 305 304 304 305 307 306 304 304 303 303 302 302 300 301 301 300 299 298 297 296 296 295 294 292 291 290 290 290 289 287 287
306 306 309 309 310 304 305 305 308 304 304 305 305 305 305 304 305 306 305 306 305 304 303 303 301 302 302 301 300 299 298 299 297 296 295 294 292 291 290 290 290 290 291 290
304 305 307 306 306 305 303 304 305 305 304 304 305 305 305 303 304 305 306 307 306 304 303 302 301 301 301 300 299 298 297 296 296 296 296 294 292 290 290 289 290 290 290 291
303 303 305 307 306 305 303 304 305 306 303 304 304 303 305 306 306 306 306 306 303 302 303 302 302 303 301 300 298 297 296 296 296 296 294 292 291 290 289 289 290 290 290 290
305 305 303 305 304 304 305 304 306 305 304 303 305 305 305 305 305 304 306 306 306 305 305 304 305 302 302 301 299 297 296 295 296 294 293 292 291 289 289 288 289 289 289 289
303 305 305 305 305 303 303 304 304 304 303 305 305 305 304 303 304 304 306 305 305 304 305 306 304 303 301 300 298 296 296 295 294 294 293 291 290 290 289 289 288 288 288 288
302 302 303 303 303 303 304 304 303 305 305 305 303 303 305 305 306 307 306 305 303 302 305 305 304 303 302 300 298 296 295 294 294 292 292 291 290 290 289 289 288 288 288 287
308 305 302 302 302 301 301 303 304 304 305 304 304 303 302 304 306 305 304 303 305 305 306 305 303 301 300 298 296 296 295 295 293 292 291 291 291 290 289 289 288 288 288 287
308 308 306 300 301 301 303 304 302 300 303 304 302 301 302 304 303 303 301 299 304 304 305 304 303 301 300 298 296 295 294 293 292 291 291 291 290 290 289 288 288 288 288 287
305 306 305 302 301 300 301 303 303 304 302 301 303 303 301 300 301 301 302 302 303 302 303 302 302 301 299 296 295 294 293 292 292 292 292 291 290 290 289 288 288 288 288 287
303 304 303 300 301 301 300 300 301 302 301 301 300 300 301 301 301 298 297 301 302 301 302 301 300 298 297 296 294 293 293 293 293 293 292 291 292 291 289 288 288 288 287 287
299 301 300 300 299 297 298 297 300 301 302 302 302 302 301 298 299 301 302 301 301 301 301 300 298 297 296 295 294 293 293 293 293 293 292 295 294 289 288 288 288 287 287 286
297 296 296 296 298 299 298 297 297 298 299 299 299 300 300 301 302 300 301 300 299 300 298 297 297 294 295 295 294 293 294 294 293 294 298 296 290 288 288 288 288 287 286 285
295 296 295 297 299 297 297 297 296 296 296 295 296 298 299 300 300 299 299 298 298 298 297 297 295 294 294 294 294 294 294 293 295 299 294 290 288 288 288 288 287 286 285 285
296 296 295 295 297 297 297 297 297 296 296 296 294 296 297 297 297 297 297 296 296 297 296 295 294 293 293 293 294 295 294 296 298 292 290 288 288 288 288 287 286 285 285 284
Wind_Speed
5 2 4 5 6 9 9 5 7 6 9 8 12 13 12 8 7 7 8 7 7 7 7 8 11 13 14 15 17 18 21 23 22 22 22 21 21 22 20 19 16 16 16 16
2 5 7 5 7 10 10 4 8 4 8 8 1 7 7 9 9 8 8 7 7 7 10 11 12 13 15 18 19 20 21 22 21 22 22 22 21 22 23 23 21 19 17 16
4 3 5 5 12 15 6 6 10 9 10 6 4 9 12 12 12 13 10 10 9 9 13 15 17 20 20 21 21 22 24 23 23 23 23 23 24 24 22 21 19 17 14 10
3 2 4 6 4 6 15 6 11 5 7 10 8 12 6 7 14 13 11 11 9 13 17 17 19 20 22 22 23 23 23 23 22 22 22 21 19 18 17 15 13 13 12 10
5 5 5 4 6 8 8 9 19 20 8 6 4 5 5 10 10 15 13 12 17 24 22 21 22 23 24 24 23 23 22 21 20 18 19 18 17 17 16 14 13 12 12 11
4 5 8 8 4 6 5 6 9 18 10 10 7 4 6 14 13 9 14 21 23 26 24 24 25 26 26 25 23 22 21 20 18 16 16 16 15 15 13 11 11 11 11 10
4 4 7 6 5 6 6 7 6 12 11 12 7 5 3 13 11 17 20 23 24 28 29 31 29 29 27 26 25 21 19 17 16 14 13 12 13 11 11 10 10 11 10 10
3 3 7 7 5 9 6 1 6 7 9 12 6 7 5 9 12 13 14 20 25 25 26 30 32 32 29 29 25 22 20 18 16 15 15 15 14 13 12 12 12 12 11 10
9 7 4 11 3 6 3 4 6 8 7 10 10 7 9 8 10 12 19 22 27 26 26 31 34 35 32 31 26 24 23 22 20 19 17 17 16 15 15 14 13 12 11 10
4 8 9 9 4 2 5 3 5 5 7 11 11 9 8 8 8 9 17 20 25 25 24 27 35 37 35 31 30 29 27 25 23 22 20 18 16 15 15 15 15 13 12 11
5 4 3 4 10 7 6 4 5 5 8 13 10 10 9 8 10 12 19 22 28 27 26 29 36 37 36 31 32 32 30 27 26 24 22 20 17 16 15 13 13 13 13 12
6 7 7 8 18 10 10 9 9 8 7 6 9 11 9 8 12 16 19 22 23 25 24 27 35 37 38 35 34 34 32 30 29 27 23 21 19 16 14 11 11 11 9 9
7 9 8 2 7 13 17 11 10 10 6 10 7 8 8 7 16 20 20 22 24 28 30 31 34 35 38 38 36 37 36 35 32 30 27 25 22 20 17 11 9 10 9 8
3 8 2 3 5 11 9 11 9 5 7 6 8 10 11 8 14 20 22 31 28 30 33 35 35 38 41 40 40 39 37 36 36 34 31 28 26 24 20 19 16 13 9 7
10 5 4 6 6 6 5 7 8 9 8 7 12 11 15 10 9 21 26 27 28 29 28 32 34 37 38 40 41 39 37 34 36 35 32 30 27 24 22 20 18 16 14 11
9 7 3 5 8 7 7 7 8 11 8 7 8 10 21 23 20 21 22 26 26 24 35 35 37 39 39 39 40 37 36 34 36 34 32 29 28 26 24 23 20 19 18 18
7 4 4 4 6 8 10 9 11 10 8 9 13 17 20 16 13 15 22 27 31 29 32 35 38 33 36 39 42 37 36 34 37 34 33 32 31 30 27 25 24 22 20 17
4 7 12 8 10 9 8 8 8 7 9 17 14 19 14 13 11 19 25 25 25 24 26 28 30 30 32 36 38 37 38 37 35 37 35 33 31 29 27 26 24 21 18 15
8 9 10 11 9 10 11 10 10 16 11 15 18 12 22 22 23 24 20 22 22 20 28 25 26 28 30 34 38 36 33 33 33 32 33 29 27 27 26 24 22 19 17 17
22 12 10 10 10 9 9 11 16 12 15 18 15 12 10 18 22 20 18 22 28 22 22 24 25 27 27 29 32 34 36 37 36 33 33 31 29 27 25 23 21 19 18 18
26 25 19 11 9 12 16 21 17 7 19 21 18 12 17 23 20 18 14 5 19 20 15 22 27 27 26 30 34 34 33 32 31 32 31 30 27 24 23 23 21 19 19 18
11 15 17 16 14 10 19 22 23 19 18 21 23 17 15 12 15 16 16 14 14 20 21 26 27 27 30 35 32 32 32 32 32 31 30 28 27 23 25 24 22 20 18 16
9 10 10 11 15 16 21 20 22 22 19 22 22 22 20 21 22 11 4 15 20 24 25 25 26 28 31 33 32 32 33 34 34 32 31 29 24 25 25 24 21 18 17 16
6 7 9 14 15 9 11 14 23 25 26 23 21 22 24 20 13 13 8 20 24 26 24 26 29 32 31 31 31 32 33 34 34 32 30 23 22 24 22 21 19 17 15 14
5 4 6 8 10 9 7 18 18 17 15 14 16 20 20 18 12 20 22 25 26 26 26 28 33 29 28 31 31 33 33 33 33 31 24 24 25 23 20 18 17 16 15 13
6 4 4 8 8 11 14 16 7 14 18 13 16 20 20 18 24 27 27 27 27 28 31 33 31 26 29 30 32 32 32 31 28 23 25 25 23 21 19 17 16 15 13 12
5 8 5 6 9 15 16 17 13 9 18 21 18 21 26 29 29 30 30 30 31 32 31 30 27 27 29 31 32 31 30 27 24 24 23 23 21 19 17 16 14 13 11 10
Wind_Direction
225 166 151 184 174 176 196 182 184 223 203 225 214 209 207 197 174 178 179 182 167 155 144 133 127 126 120 116 121 124 120 117 114 113 113 121 123 120 120 119 119 118 118 113
229 205 204 228 218 194 213 207 265 257 258 219 228 124 165 190 179 193 181 193 169 160 161 157 151 142 133 130 128 128 120 114 114 115 120 124 123 118 116 115 117 116 112 109
236 146 131 282 221 202 184 194 190 213 226 163 174 196 197 194 192 196 193 186 188 182 174 168 167 157 150 145 142 137 131 129 130 129 126 124 123 120 119 118 121 115 110 110
154 136 226 238 151 175 206 208 212 223 188 183 196 208 198 192 191 196 183 182 186 182 183 179 169 164 155 154 151 145 141 142 142 137 130 129 127 125 124 123 120 117 119 125
153 197 286 250 195 156 168 257 204 219 187 186 113 87 261 196 191 197 187 177 183 189 185 177 173 169 163 159 158 155 154 152 150 146 141 140 137 137 137 137 134 137 138 133
145 167 212 227 181 153 135 292 202 198 168 149 146 159 239 184 185 184 174 172 175 185 180 178 176 173 169 168 169 170 168 164 161 160 156 151 149 147 145 144 147 149 143 133
163 209 284 240 157 144 129 234 161 174 159 153 187 191 208 162 177 181 178 175 184 181 180 184 180 179 180 179 185 181 175 173 172 169 164 162 162 164 164 162 163 160 158 158
135 153 248 152 78 165 214 120 150 148 163 178 122 146 132 164 165 165 166 164 176 172 182 187 185 185 187 191 190 185 183 182 183 182 182 181 179 176 178 179 176 174 173 170
180 198 224 197 168 208 178 159 177 160 172 165 148 172 159 166 167 176 170 170 180 177 179 190 192 193 191 198 191 189 189 188 188 187 188 188 189 189 186 189 190 186 188 189
123 211 220 215 223 256 209 222 165 169 154 160 168 164 169 153 164 171 171 172 176 177 178 185 196 199 205 198 193 191 191 192 190 189 190 195 197 199 198 196 196 199 201 205
254 287 68 237 225 197 206 216 152 146 166 179 153 178 169 168 174 180 176 175 179 183 189 194 198 202 206 202 195 194 195 194 194 194 195 194 200 205 208 214 217 213 217 219
206 191 182 209 216 167 183 199 191 162 155 175 173 175 168 178 178 173 178 178 185 191 192 196 203 204 207 206 201 198 198 198 199 197 199 200 199 199 207 216 220 223 227 231
194 199 189 113 172 176 194 191 189 187 172 171 183 163 174 165 177 180 182 183 189 192 197 201 206 207 211 209 205 204 201 203 202 201 200 199 200 200 192 195 208 221 223 220
162 113 89 235 193 188 188 179 170 170 175 176 162 174 168 155 166 178 185 198 199 196 197 203 204 210 214 211 209 209 207 210 205 204 203 203 204 203 200 189 186 185 188 190
200 214 177 172 98 139 113 131 162 189 177 168 176 175 171 164 177 197 200 200 201 201 201 202 203 210 212 209 208 206 204 200 206 207 207 207 205 203 201 201 199 195 190 194
212 199 137 155 182 157 138 167 190 209 166 166 181 186 192 195 195 197 197 194 179 194 205 205 209 215 211 206 205 203 205 203 208 205 202 202 203 202 201 205 204 206 207 210
156 179 161 206 169 171 195 196 201 195 178 171 202 190 190 188 178 186 200 204 212 216 214 211 218 213 212 209 202 194 193 194 205 203 201 203 204 205 206 208 212 216 220 223
240 217 199 197 193 184 201 206 208 192 189 205 182 173 166 169 196 204 210 208 212 222 224 224 219 216 212 207 200 192 192 189 193 199 199 200 202 203 205 211 216 217 218 217
195 217 216 211 203 186 193 201 201 208 192 171 157 182 193 198 208 218 213 201 202 210 225 218 217 215 210 207 199 192 183 182 190 191 194 192 195 202 205 209 213 213 213 211
245 221 215 219 209 178 185 197 203 193 198 179 175 158 179 203 209 210 203 198 213 220 228 208 201 203 201 195 188 192 188 189 185 185 185 186 193 197 204 209 212 211 211 213
236 240 226 201 215 195 192 201 184 181 196 188 176 180 194 204 202 196 173 200 223 219 214 193 191 187 189 186 188 192 185 179 177 176 172 183 188 195 200 207 209 211 212 216
219 219 219 204 201 201 204 200 197 200 183 188 198 194 179 179 185 189 208 213 207 195 183 182 184 186 181 177 185 185 182 178 177 176 178 181 187 191 205 205 207 210 214 217
208 204 203 192 194 199 197 194 199 199 187 190 188 186 184 188 182 155 183 194 184 181 181 180 176 175 168 179 181 182 179 179 177 179 181 182 185 202 203 204 205 209 210 211
212 198 192 187 173 156 176 192 189 197 199 198 199 196 179 152 163 187 185 173 175 176 175 166 165 162 172 175 176 177 177 176 175 174 176 182 192 198 199 199 201 204 206 211
223 202 153 153 177 190 161 169 165 159 151 156 173 178 183 179 171 162 160 160 165 164 155 156 153 160 171 174 175 175 175 175 173 171 176 185 189 188 190 193 199 201 204 212
178 183 167 167 182 160 155 153 147 142 135 117 130 146 144 147 144 148 151 152 153 153 146 148 158 168 169 170 171 171 171 170 170 176 181 180 181 183 186 189 191 196 202 206
104 126 120 105 140 151 151 153 145 141 141 138 124 140 140 140 144 145 143 144 145 143 143 156 163 164 167 167 168 168 167 171 179 176 177 178 180 181 184 188 189 191 192 196